Other Public Products
Issued by NWS Charleston, SC

Current Version | Previous Version | Graphics & Text | Print | Product List | Glossary On
Versions: 1 2 3 4 5 6 7 8 9 10 11 12 13 14 15 16 17 18 19 20 21 22 23 24 25 26 27 28 29 30 31 32 33 34 35 36 37 38 39 40 41 42 43 44 45 46 47 48 49 50
382
FPUS82 KCHS 231427
OPUCHS

TEST...KCHS/KSAV Gateway Observations...TEST
National Weather Service Charleston SC
1000 AM EDT THU MAR 23 2017

NOTE: "fair" indicates few or no clouds below 12,000 feet with no
significant weather and/or obstructions to visibility.

SCZ050-WAZ558-NCZ071-TXZ119-213-PAZ071-DCZ001-FLZ074-172-MI076-
NYZ176-178-MAZ016-IL014-TNZ027-NJZ106-GAZ044-MD014-231500-

...Gateway Observations for Charleston International...

CITY           SKY/WX    TMP DP  RH WIND       PRES   REMARKS
Chas Airport   SUNNY     55  38  52 NE12G23   30.47R
Seattle        PTCLDY    41  37  86 SE10      30.08S
Charlotte      MOSUNNY   45  20  36 E9G20     30.57R
Dallas DFW     MOSUNNY   69  61  75 S24G32    30.02R
Dallas Love    PTSUNNY   67  61  81 S20G26    30.05R
Philladelphia  MOSUNNY   31   7  36 N9        30.65R WCI  23
Wash National  SUNNY     34   6  31 NE6       30.68R WCI  29
Baltimore      SUNNY     33   4  29 VRB7      30.65R WCI  27
Miami          MOSUNNY   75  63  66 VRB3      30.16S
Detroit        CLOUDY    32  15  49 SE12      30.58S WCI  23
Newark         SUNNY     30   1  29 NW9       30.62R WCI  22
Laguardia      SUNNY     30   3  31 N8        30.61R WCI  22
J F K          MOSUNNY   30   0  27 NW12      30.62R WCI  20
Boston Logan   MOSUNNY   25  -3  29 NW14      30.49S WCI  13
Ft. Lauderdale MOSUNNY   74  64  71 CALM      30.15S
Chicago O`Hare CLOUDY    35  19  52 SE14      30.40S WCI  26
Chicago Midway CLOUDY    34  19  54 SE12G20   30.41F WCI  25
Houston Bush   PTSUNNY   70  67  90 SE8       30.15R
Houston Hobby  MOSUNNY   69  67  93 SE5       30.15R
Nashville      MOSUNNY   47  28  47 E6        30.34F
Atlanta        PTSUNNY   53  37  54 E20       30.42R

$$

GAZ044-118-TXZ119-213-NCZ071-DCZ001-MDZ014-506-PAZ021-071-NJZ106-
NYZ176-178-MAZ106-OHZ011-021-055-MIZ076-KYZ091-ILZ014-INZ047-
MNZ060-ONZ431-231500-

...Gateway Observations for Savannah International...

CITY           SKY/WX    TMP DP  RH WIND       PRES   REMARKS
Savannah Arpt  CLOUDY    58  42  55 NE13      30.43R
Atlanta        PTSUNNY   53  37  54 E20       30.42R
Charlotte      MOSUNNY   45  20  36 E9G20     30.57R
Dallas DFW     MOSUNNY   69  61  75 S24G32    30.02R
Houston Bush   PTSUNNY   70  67  90 SE8       30.15R
Wash National  SUNNY     34   6  31 NE6       30.68R WCI  29
Wash Dulles    SUNNY     32   2  27 NE3       30.65R
Baltimore      SUNNY     33   4  29 VRB7      30.65R WCI  27
Philadelphia   MOSUNNY   31   7  36 N9        30.65R WCI  23
Newark         SUNNY     30   1  29 NW9       30.62R WCI  22
Laguardia      SUNNY     30   3  31 N8        30.61R WCI  22
J F K          MOSUNNY   30   0  27 NW12      30.62R WCI  20
Boston         MOSUNNY   25  -3  29 NW14      30.49S WCI  13
Pittsburg      MOSUNNY   28  12  51 E9        30.54S WCI  19
Akron          MOSUNNY   28  14  55 E8        30.55R WCI  20
Cleveland      MOSUNNY   30  16  56 S7        30.60S WCI  23
Cincinnati     CLOUDY    35  15  44 E13       30.43F WCI  26
Columbus       SUNNY     31  14  50 E8        30.51S WCI  23
Detroit        CLOUDY    32  15  49 SE12      30.58S WCI  23
Chicago O`Hare CLOUDY    35  19  52 SE14      30.40S WCI  26
Minneapolis    CLOUDY    38  22  52 SE12      30.11F WCI  30
Indianapolis   MOSUNNY   34  19  54 SE12      30.43R WCI  25
Toronto Canada MOSUNNY   27  12  54 CALM      30.60R

$$




USA.gov is the U.S. government's official web portal to all federal, state and local government web resources and services.